STARLINK-30783, 58130

Orbit data source: Space-Track

STARLINK-30783, 58130 is a payload satellite owned by SpaceX/Seattle (US) in LEO that was launched on Sun, 22 Oct 2023 UTC via an FALCON 9 launch vehicle from the Air Force Eastern Test Range (AFETR). Payload-class satellites include a variety of spacecraft equipped with specific instruments for various scientific and technological missions. These include communications satellites like Starlink; space stations such as the ISS; scientific satellites like the Hubble; Earth observation satellites from companies like Planet Labs, Umbra, and HawkEye 360; GPS; miniature CubeSats for education and research; and military/defense satellites.

Loading next visibility...
Identifier
58130, 2023-162N
Orbit
LEO
Country
Flag of USUS
Related business
Manufacturer
SpaceX/Seattle
Mission
Operational Commercial Communications
Bus & Motor
STARLINK V2M, Unknown motor
Mass
730 kg wet, ~700 kg dry
Launch date (UTC)
2023-10-22 (3 years ago)
Launch vehicle
FALCON 9
Launch site
Air Force Eastern Test Range (AFETR)
Object type
Payload
Rocket body
Debris
Shape & HBR
Box + 2 Pan, 17.7 m
Radar Cross Section
33.884 m², Large (>1 m²)

Expand to show TLE details & history
Last TLE update: 3 days ago

TLE from 3 days ago
0 STARLINK-30783
1 58130U 23162N   26170.02590220 -.00000229  00000-0  11915-5 0  9993
2 58130  43.0003 276.9188 0001105 264.6119  95.4607 15.27573905147845
Epoch: 2026-06-19T00:37Z
TLE epoch observation values (Epoch: 2026-06-19T00:37:17.950Z)
Latitude
0.00003°
Longitude
0.33324°
Altitude
482.915 km
Speed
7.626 km/s
True Right ascension
18h 27m 40s
True Declination
0° 00' 00"
Sunlit
Object was in full shadow at epoch
Visualization orbit readout
Latitude
Unknown
Longitude
Unknown
Altitude
Unknown
Speed
Unknown
Apparent Right ascension
Unknown
Apparent Declination
Unknown
Sunlit
N/A
Visualization observer readout
Local Sidereal Time
21:36:02
Azimuth
Unknown
Elevation
Unknown
Doppler factor
Unknown
Orbital elements
Apogee altitude
485.771 km
Perigee altitude
484.254 km
Semi-major axis
6,863.149 km
Eccentricity
0.00011
Inclination
43.0003°
RAAN
276.9188°
Arg. of periapsis
264.6119°
True anomaly
95.4733°
Mean anomaly
95.4607°
Eccentric anomaly
95.467°
Mean motion
3.81731 °/min
Orbital period
94.31 mins
BSTAR
0.0000011915
Loading maneuver chart data...
Computing Atmospheric mass density...
Loading historical data...
Loading historical data...
Loading historical data...
Loading historical data...
Loading historical data...
Loading historical data...
Loading historical data...

Documentation

Showing up to 5 results
|